| time (UTC) | temp C | wind direction | speed KPH | gust KPH | rain 1hr cm | rain 24hr cm | rain mn cm | humidity % | barometer mb |
| 20260510200010 | 31 | 164 | 14.5 | 24.1 | 0.00 | 0.00 | 0.00 | 67 | 1012.7 |
| 20260510194507 | 30 | 134 | 11.3 | 22.5 | 0.00 | 0.00 | 0.00 | 69 | 1012.9 |
| 20260510193006 | 30 | 157 | 12.9 | 19.3 | 0.00 | 0.00 | 0.00 | 70 | 1013.0 |
| 20260510191516 | 30 | 150 | 14.5 | 24.1 | 0.00 | 0.00 | 0.00 | 71 | 1013.3 |
| 20260510190003 | 30 | 105 | 11.3 | 22.5 | 0.00 | 0.00 | 0.00 | 72 | 1013.2 |
| 20260510184501 | 30 | 123 | 16.1 | 25.7 | 0.00 | 0.00 | 0.00 | 73 | 1013.4 |
| 20260510183107 | 29 | 126 | 12.9 | 24.1 | 0.00 | 0.00 | 0.00 | 73 | 1013.7 |
| 20260510181558 | 29 | 111 | 14.5 | 24.1 | 0.00 | 0.00 | 0.00 | 73 | 1013.8 |
| 20260510180103 | 28 | 123 | 12.9 | 22.5 | 0.00 | 0.00 | 0.00 | 76 | 1013.9 |
| 20260510174605 | 28 | 116 | 11.3 | 17.7 | 0.00 | 0.00 | 0.00 | 77 | 1014.2 |
| 20260510173057 | 28 | 119 | 9.7 | 17.7 | 0.00 | 0.00 | 0.00 | 77 | 1014.5 |
| 20260510171549 | 27 | 107 | 11.3 | 19.3 | 0.00 | 0.00 | 0.00 | 80 | 1014.7 |
| 20260510170148 | 27 | 105 | 14.5 | 22.5 | 0.00 | 0.00 | 0.00 | 81 | 1014.8 |
| 20260510164547 | 27 | 101 | 6.4 | 19.3 | 0.00 | 0.00 | 0.00 | 81 | 1015.0 |
| 20260510163043 | 27 | 89 | 9.7 | 19.3 | 0.00 | 0.00 | 0.00 | 84 | 1014.9 |
| 20260510161541 | 26 | 75 | 9.7 | 17.7 | 0.00 | 0.00 | 0.00 | 86 | 1015.0 |
| 20260510160046 | 26 | 84 | 9.7 | 19.3 | 0.00 | 0.00 | 0.00 | 87 | 1015.2 |
| 20260510154550 | 25 | 85 | 9.7 | 19.3 | 0.00 | 0.00 | 0.00 | 89 | 1015.3 |
| 20260510153033 | 25 | 84 | 4.8 | 17.7 | 0.00 | 0.00 | 0.00 | 95 | 1015.2 |
| 20260510151528 | 23 | 83 | 9.7 | 17.7 | 0.00 | 0.00 | 0.00 | 97 | 1015.4 |
| 20260510150026 | 23 | 78 | 11.3 | 20.9 | 0.00 | 0.00 | 0.00 | 99 | 1015.4 |
| 20260510144536 | 23 | 86 | 9.7 | 16.1 | 0.00 | 0.00 | 0.00 | 100 | 1015.3 |
| 20260510143036 | 23 | 48 | 4.8 | 8.0 | 0.00 | 0.00 | 0.00 | 100 | 1015.2 |
| 20260510141521 | 22 | 29 | 4.8 | 9.7 | 0.00 | 0.00 | 0.00 | 100 | 1015.1 |
| 20260510140018 | 22 | 78 | 4.8 | 8.0 | 0.00 | 0.00 | 0.00 | 100 | 1014.7 |
| 20260510134519 | 22 | 54 | 3.2 | 6.4 | 0.00 | 0.00 | 0.00 | 100 | 1014.6 |
| 20260510133016 | 22 | 43 | 3.2 | 8.0 | 0.00 | 0.00 | 0.00 | 100 | 1014.4 |
| 20260510131513 | 22 | 61 | 3.2 | 6.4 | 0.00 | 0.00 | 0.00 | 99 | 1013.9 |
| 20260510130013 | 21 | 20 | 0.0 | 4.8 | 0.00 | 0.00 | 0.00 | 100 | 1013.6 |
| 20260510124509 | 21 | 42 | 3.2 | 6.4 | 0.00 | 0.00 | 0.00 | 99 | 1013.4 |
| 20260510123010 | 21 | 134 | 0.0 | 4.8 | 0.00 | 0.00 | 0.00 | 99 | 1013.2 |
| 20260510121505 | 20 | 134 | 3.2 | 6.4 | 0.00 | 0.00 | 0.00 | 99 | 1012.7 |
| 20260510120002 | 20 | 134 | 3.2 | 6.4 | 0.00 | 0.00 | 0.00 | 99 | 1012.3 |
| 20260510114600 | 20 | 136 | 3.2 | 6.4 | 0.00 | 0.00 | 0.00 | 99 | 1012.1 |
| 20260510113104 | 20 | 117 | 1.6 | 4.8 | 0.00 | 0.00 | 0.00 | 98 | 1012.0 |
| 20260510111557 | 20 | 192 | 0.0 | 3.2 | 0.00 | 0.00 | 0.00 | 98 | 1011.9 |
| 20260510110056 | 20 | 192 | 0.0 | 3.2 | 0.00 | 0.00 | 0.00 | 98 | 1011.7 |
| 20260510104602 | 20 | 192 | 0.0 | 1.6 | 0.00 | 0.00 | 0.00 | 98 | 1011.6 |
| 20260510103054 | 20 | 192 | 1.6 | 1.6 | 0.00 | 0.00 | 0.00 | 98 | 1011.6 |
| 20260510101553 | 20 | 192 | 0.0 | 3.2 | 0.00 | 0.00 | 0.00 | 98 | 1011.4 |
| 20260510100053 | 20 | 192 | 1.6 | 6.4 | 0.00 | 0.00 | 0.00 | 97 | 1011.5 |
| 20260510094602 | 20 | 192 | 3.2 | 8.0 | 0.00 | 0.00 | 0.00 | 97 | 1011.4 |
| 20260510093111 | 20 | 192 | 3.2 | 8.0 | 0.00 | 0.00 | 0.00 | 97 | 1011.5 |
| 20260510091549 | 20 | 148 | 1.6 | 4.8 | 0.00 | 0.00 | 0.00 | 96 | 1011.8 |
| 20260510090148 | 20 | 148 | 0.0 | 4.8 | 0.00 | 0.00 | 0.00 | 96 | 1011.8 |
| 20260510084546 | 21 | 148 | 3.2 | 8.0 | 0.00 | 0.00 | 0.00 | 95 | 1011.8 |
| 20260510083045 | 21 | 80 | 0.0 | 3.2 | 0.00 | 0.00 | 0.00 | 94 | 1012.0 |
| 20260510081544 | 21 | 80 | 0.0 | 1.6 | 0.00 | 0.00 | 0.00 | 94 | 1011.9 |
| 20260510080043 | 21 | 80 | 1.6 | 4.8 | 0.00 | 0.00 | 0.00 | 94 | 1011.9 |
| 20260510074544 | 21 | 80 | 0.0 | 0.0 | 0.00 | 0.00 | 0.00 | 94 | 1011.7 |
| 20260510073045 | 21 | 80 | 3.2 | 6.4 | 0.00 | 0.00 | 0.00 | 94 | 1011.6 |
| 20260510071549 | 21 | 148 | 4.8 | 8.0 | 0.00 | 0.00 | 0.00 | 94 | 1011.5 |
| 20260510070039 | 21 | 130 | 4.8 | 11.3 | 0.00 | 0.00 | 0.00 | 94 | 1011.5 |
| 20260510064538 | 21 | 149 | 8.0 | 14.5 | 0.00 | 0.00 | 0.00 | 94 | 1011.5 |
| 20260510063036 | 21 | 117 | 6.4 | 11.3 | 0.00 | 0.00 | 0.00 | 94 | 1011.8 |
| 20260510061537 | 21 | 121 | 4.8 | 11.3 | 0.00 | 0.00 | 0.00 | 94 | 1011.9 |
| 20260510060032 | 21 | 113 | 4.8 | 9.7 | 0.00 | 0.00 | 0.00 | 93 | 1012.0 |
| 20260510054530 | 22 | 142 | 4.8 | 11.3 | 0.00 | 0.00 | 0.00 | 92 | 1012.0 |
| 20260510053047 | 22 | 144 | 8.0 | 16.1 | 0.00 | 0.00 | 0.00 | 91 | 1011.9 |
| 20260510051525 | 22 | 147 | 12.9 | 19.3 | 0.00 | 0.00 | 0.00 | 91 | 1011.8 |
| 20260510050028 | 22 | 140 | 14.5 | 24.1 | 0.00 | 0.00 | 0.00 | 90 | 1011.7 |
| 20260510044521 | 23 | 121 | 16.1 | 24.1 | 0.00 | 0.00 | 0.00 | 91 | 1011.9 |
| 20260510043036 | 22 | 107 | 16.1 | 20.9 | 0.00 | 0.00 | 0.00 | 92 | 1011.9 |
| 20260510041525 | 22 | 108 | 12.9 | 19.3 | 0.00 | 0.00 | 0.00 | 91 | 1012.0 |
| 20260510040032 | 23 | 111 | 11.3 | 20.9 | 0.00 | 0.00 | 0.00 | 89 | 1011.9 |
| 20260510034518 | 23 | 103 | 11.3 | 16.1 | 0.00 | 0.00 | 0.00 | 89 | 1011.7 |
| 20260510033017 | 23 | 98 | 11.3 | 17.7 | 0.00 | 0.00 | 0.00 | 89 | 1011.6 |
| 20260510031522 | 23 | 104 | 0.0 | 11.3 | 0.00 | 0.00 | 0.00 | 89 | 1010.9 |
| 20260510030017 | 24 | 205 | 6.4 | 11.3 | 0.00 | 0.00 | 0.00 | 85 | 1010.2 |
| 20260510024517 | 25 | 122 | 0.0 | 3.2 | 0.00 | 0.00 | 0.00 | 81 | 1010.3 |
| 20260510023013 | 25 | 130 | 6.4 | 16.1 | 0.00 | 0.00 | 0.00 | 81 | 1010.0 |
| 20260510021525 | 24 | 113 | 12.9 | 24.1 | 0.00 | 0.00 | 0.00 | 83 | 1010.0 |
| 20260510020012 | 23 | 115 | 19.3 | 29.0 | 0.00 | 0.00 | 0.00 | 82 | 1009.9 |
| 20260510014511 | 24 | 107 | 16.1 | 27.4 | 0.00 | 0.00 | 0.00 | 82 | 1009.7 |
| 20260510013019 | 24 | 111 | 17.7 | 25.7 | 0.00 | 0.00 | 0.00 | 79 | 1009.5 |
| 20260510011509 | 26 | 86 | 12.9 | 24.1 | 0.00 | 0.00 | 0.00 | 76 | 1009.3 |
| 20260510010008 | 27 | 86 | 0.0 | 4.8 | 0.00 | 0.00 | 0.00 | 85 | 1008.9 |
| 20260510004509 | 28 | 120 | 0.0 | 0.0 | 0.00 | 0.00 | 0.00 | 81 | 1008.9 |
| 20260510003008 | 27 | 120 | 0.0 | 6.4 | 0.00 | 0.00 | 0.00 | 82 | 1008.8 |
| 20260510001509 | 28 | 163 | 0.0 | 6.4 | 0.00 | 0.00 | 0.00 | 79 | 1008.6 |
| 20260510000006 | 28 | 15 | 0.0 | 4.8 | 0.00 | 0.00 | 0.00 | 81 | 1008.7 |
| 20260509234506 | 29 | 46 | 1.6 | 9.7 | 0.00 | 0.00 | 0.00 | 79 | 1008.5 |
| 20260509233005 | 29 | 151 | 3.2 | 8.0 | 0.00 | 0.00 | 0.00 | 75 | 1008.4 |
| 20260509231505 | 30 | 148 | 0.0 | 4.8 | 0.00 | 0.00 | 0.00 | 73 | 1008.6 |
| 20260509230008 | 30 | 148 | 3.2 | 6.4 | 0.00 | 0.00 | 0.00 | 69 | 1008.5 |
| 20260509224507 | 30 | 110 | 3.2 | 11.3 | 0.00 | 0.00 | 0.00 | 69 | 1008.8 |
| 20260509223003 | 31 | 104 | 1.6 | 11.3 | 0.00 | 0.00 | 0.00 | 68 | 1008.5 |
| 20260509221601 | 31 | 137 | 1.6 | 16.1 | 0.00 | 0.00 | 0.00 | 68 | 1008.1 |
| 20260509214628 | 30 | 175 | 0.0 | 0.0 | 0.00 | 0.00 | 0.00 | 70 | 1008.2 |
| 20260509213054 | 30 | 243 | 1.6 | 4.8 | 0.00 | 0.00 | 0.00 | 69 | 1008.2 |
| 20260509211551 | 31 | 324 | 0.0 | 3.2 | 0.00 | 0.00 | 0.00 | 68 | 1008.3 |
| 20260509210052 | 31 | 104 | 3.2 | 8.0 | 0.00 | 0.00 | 0.00 | 66 | 1008.5 |
| 20260509204547 | 31 | 57 | 3.2 | 8.0 | 0.00 | 0.00 | 0.00 | 70 | 1008.7 |
| 20260509203054 | 30 | 81 | 1.6 | 4.8 | 0.00 | 0.00 | 0.00 | 70 | 1008.8 |
| 20260509201540 | 30 | 236 | 3.2 | 8.0 | 0.00 | 0.00 | 0.00 | 73 | 1009.1 |